AAL743 KMSY-KDFW

Flight info

Callsign AAL743
Flight time 1h 10m
Altitude 36000
Route AEX PNUTS WHINY4
Aircraft B738/M-SDE2E3FGHIRWXY/LB1

Departure

Time 2026-05-07 20:01
Airport Louis Armstrong New Orleans International Airport (KMSY)

Arrival

Time 2026-05-07 21:11
Airport Dallas Fort Worth International Airport (KDFW)
Time Latitude Longitude Altitude Speed Heading
2026-05-07 16:59 29.99337 -90.25765 5 ft 0 kts 79°
2026-05-07 19:54 29.99336 -90.25773 5 ft 4 kts 80°
2026-05-07 19:54 29.99333 -90.25803 5 ft 4 kts 93°
2026-05-07 19:54 29.99338 -90.25833 3 ft 4 kts 121°
2026-05-07 19:54 29.99353 -90.25848 3 ft 3 kts 189°
2026-05-07 19:55 29.99355 -90.25847 3 ft 1 kts 192°
2026-05-07 19:57 29.99354 -90.25848 3 ft 1 kts 192°
2026-05-07 19:57 29.99296 -90.25860 3 ft 13 kts 181°
2026-05-07 19:58 29.99232 -90.25802 4 ft 12 kts 111°
2026-05-07 19:58 29.99212 -90.25707 3 ft 12 kts 102°
2026-05-07 19:58 29.99203 -90.25607 4 ft 14 kts 87°
2026-05-07 19:58 29.99202 -90.25485 6 ft 17 kts 94°
2026-05-07 19:59 29.99195 -90.25340 6 ft 18 kts 92°
2026-05-07 19:59 29.99189 -90.25197 6 ft 18 kts 94°
2026-05-07 19:59 29.99178 -90.25083 8 ft 11 kts 114°
2026-05-07 19:59 29.99110 -90.25074 7 ft 11 kts 195°
2026-05-07 20:00 29.99031 -90.25100 6 ft 12 kts 197°
2026-05-07 20:00 29.98951 -90.25131 4 ft 12 kts 216°
2026-05-07 20:00 29.98951 -90.25223 6 ft 17 kts 287°
2026-05-07 20:00 29.99047 -90.25619 7 ft 86 kts 285°
2026-05-07 20:01 29.99264 -90.26519 9 ft 144 kts 285°
2026-05-07 20:01 29.99575 -90.27779 199 ft 176 kts 287°
2026-05-07 20:01 29.99930 -90.29190 787 ft 188 kts 286°
2026-05-07 20:01 30.00256 -90.30690 1398 ft 203 kts 285°
2026-05-07 20:02 30.00611 -90.32383 1626 ft 229 kts 285°
2026-05-07 20:02 30.01166 -90.34191 1838 ft 254 kts 300°
2026-05-07 20:02 30.02182 -90.35915 2491 ft 261 kts 304°
2026-05-07 20:02 30.03216 -90.37628 3468 ft 260 kts 304°
2026-05-07 20:03 30.04251 -90.39349 4332 ft 262 kts 304°
2026-05-07 20:03 30.05291 -90.41084 5198 ft 264 kts 302°
2026-05-07 20:03 30.06330 -90.42825 6085 ft 263 kts 302°
2026-05-07 20:03 30.07369 -90.44572 6942 ft 264 kts 301°
2026-05-07 20:04 30.08397 -90.46304 7678 ft 268 kts 301°
2026-05-07 20:04 30.09457 -90.48094 8414 ft 271 kts 301°
2026-05-07 20:04 30.10524 -90.49899 9149 ft 274 kts 301°
2026-05-07 20:04 30.11602 -90.51723 9878 ft 276 kts 301°
2026-05-07 20:05 30.12692 -90.53570 10472 ft 285 kts 301°
2026-05-07 20:05 30.13849 -90.55540 10639 ft 307 kts 301°
2026-05-07 20:05 30.15090 -90.57651 10803 ft 328 kts 302°
2026-05-07 20:05 30.16401 -90.59882 11052 ft 342 kts 302°
2026-05-07 20:06 30.17755 -90.62182 11559 ft 348 kts 302°
2026-05-07 20:06 30.19117 -90.64495 12248 ft 349 kts 302°
2026-05-07 20:06 30.20484 -90.66816 12911 ft 350 kts 301°
2026-05-07 20:06 30.21856 -90.69149 13607 ft 351 kts 301°
2026-05-07 20:07 30.23234 -90.71496 14233 ft 355 kts 300°
2026-05-07 20:07 30.24624 -90.73864 14899 ft 357 kts 300°
2026-05-07 20:07 30.26023 -90.76250 15540 ft 360 kts 300°
2026-05-07 20:07 30.27428 -90.78648 16211 ft 361 kts 299°
2026-05-07 20:08 30.28839 -90.81059 16838 ft 363 kts 298°
2026-05-07 20:08 30.30260 -90.83489 17451 ft 365 kts 298°
2026-05-07 20:08 30.31689 -90.85934 18010 ft 369 kts 298°
2026-05-07 20:08 30.33130 -90.88402 18577 ft 371 kts 298°
2026-05-07 20:09 30.34581 -90.90886 19138 ft 374 kts 297°
2026-05-07 20:09 30.36039 -90.93386 19656 ft 376 kts 297°
2026-05-07 20:09 30.37510 -90.95907 20158 ft 379 kts 297°
2026-05-07 20:10 30.40481 -91.01006 21144 ft 384 kts 297°
2026-05-07 20:10 30.41980 -91.03580 21602 ft 387 kts 297°
2026-05-07 20:10 30.43469 -91.06140 22032 ft 389 kts 297°
2026-05-07 20:10 30.44985 -91.08746 22473 ft 391 kts 297°
2026-05-07 20:11 30.46484 -91.11325 22898 ft 393 kts 297°
2026-05-07 20:11 30.48013 -91.13957 23316 ft 395 kts 297°
2026-05-07 20:11 30.49553 -91.16610 23697 ft 398 kts 297°
2026-05-07 20:11 30.51102 -91.19282 24057 ft 400 kts 297°
2026-05-07 20:12 30.52660 -91.21971 24426 ft 402 kts 297°
2026-05-07 20:12 30.54223 -91.24669 24786 ft 404 kts 297°
2026-05-07 20:12 30.55791 -91.27379 25146 ft 405 kts 297°
2026-05-07 20:12 30.57364 -91.30099 25483 ft 407 kts 297°
2026-05-07 20:13 30.58943 -91.32829 25849 ft 408 kts 297°
2026-05-07 20:13 30.60528 -91.35572 26184 ft 409 kts 297°
2026-05-07 20:13 30.62059 -91.38224 26467 ft 411 kts 297°
2026-05-07 20:13 30.63653 -91.40986 26788 ft 412 kts 297°
2026-05-07 20:14 30.65250 -91.43756 27075 ft 414 kts 297°
2026-05-07 20:14 30.66855 -91.46543 27354 ft 416 kts 297°
2026-05-07 20:14 30.68406 -91.49238 27624 ft 417 kts 297°
2026-05-07 20:14 30.70019 -91.52043 27926 ft 418 kts 297°
2026-05-07 20:15 30.71637 -91.54858 28191 ft 419 kts 296°
2026-05-07 20:15 30.73256 -91.57677 28457 ft 420 kts 297°
2026-05-07 20:15 30.74877 -91.60501 28716 ft 421 kts 297°
2026-05-07 20:15 30.76504 -91.63339 29000 ft 421 kts 296°
2026-05-07 20:16 30.78125 -91.66165 29386 ft 419 kts 296°
2026-05-07 20:16 30.79736 -91.68973 29829 ft 416 kts 296°
2026-05-07 20:16 30.81311 -91.71720 30293 ft 412 kts 296°
2026-05-07 20:16 30.82918 -91.74528 30634 ft 412 kts 296°
2026-05-07 20:17 30.84506 -91.77309 30886 ft 413 kts 296°
2026-05-07 20:17 30.86072 -91.80054 31216 ft 412 kts 296°
2026-05-07 20:17 30.87656 -91.82831 31559 ft 412 kts 296°
2026-05-07 20:17 30.89236 -91.85601 31933 ft 410 kts 295°
2026-05-07 20:18 30.90811 -91.88365 32240 ft 410 kts 295°
2026-05-07 20:18 30.92386 -91.91131 32576 ft 409 kts 295°
2026-05-07 20:18 30.93954 -91.93884 32917 ft 408 kts 295°
2026-05-07 20:18 30.95518 -91.96635 33210 ft 407 kts 295°
2026-05-07 20:19 30.97083 -91.99388 33536 ft 407 kts 295°
2026-05-07 20:19 30.98643 -92.02137 33812 ft 407 kts 295°
2026-05-07 20:19 31.00201 -92.04882 34121 ft 406 kts 294°
2026-05-07 20:19 31.01752 -92.07616 34456 ft 404 kts 294°
2026-05-07 20:20 31.03299 -92.10345 34783 ft 402 kts 294°
2026-05-07 20:20 31.04837 -92.13058 35169 ft 399 kts 294°
2026-05-07 20:20 31.06363 -92.15753 35484 ft 398 kts 294°
2026-05-07 20:20 31.07865 -92.18411 35745 ft 397 kts 294°
2026-05-07 20:21 31.09381 -92.21096 36046 ft 396 kts 294°
2026-05-07 20:21 31.12406 -92.26458 36068 ft 395 kts 294°
2026-05-07 20:22 31.15420 -92.31802 36076 ft 393 kts 294°
2026-05-07 20:22 31.18420 -92.37132 36067 ft 392 kts 294°
2026-05-07 20:23 31.21408 -92.42449 36067 ft 391 kts 294°
2026-05-07 20:23 31.24389 -92.47757 36073 ft 390 kts 294°
2026-05-07 20:24 31.26846 -92.53284 36080 ft 378 kts 283°
2026-05-07 20:24 31.28771 -92.59007 36078 ft 379 kts 283°
2026-05-07 20:25 31.30711 -92.64741 36075 ft 380 kts 284°
2026-05-07 20:25 31.32334 -92.69522 36074 ft 381 kts 284°
2026-05-07 20:26 31.34298 -92.75298 36071 ft 382 kts 284°
2026-05-07 20:26 31.36264 -92.81086 36065 ft 383 kts 284°
2026-05-07 20:27 31.38232 -92.86890 36064 ft 384 kts 283°
2026-05-07 20:27 31.40520 -92.93652 36067 ft 385 kts 283°
2026-05-07 20:28 31.42170 -92.98539 36068 ft 386 kts 283°
2026-05-07 20:28 31.44140 -93.04379 36066 ft 386 kts 283°
2026-05-07 20:29 31.46108 -93.10225 36065 ft 386 kts 283°
2026-05-07 20:29 31.48061 -93.16034 36066 ft 385 kts 283°
2026-05-07 20:30 31.50018 -93.21868 36073 ft 384 kts 283°
2026-05-07 20:30 31.51969 -93.27692 36078 ft 384 kts 283°
2026-05-07 20:31 31.53913 -93.33508 36073 ft 382 kts 283°
2026-05-07 20:31 31.55848 -93.39309 36073 ft 382 kts 283°
2026-05-07 20:32 31.57776 -93.45099 36075 ft 381 kts 283°
2026-05-07 20:32 31.59699 -93.50881 36072 ft 380 kts 283°
2026-05-07 20:33 31.61499 -93.56676 36076 ft 376 kts 279°
2026-05-07 20:33 31.62968 -93.62539 36086 ft 374 kts 278°
2026-05-07 20:34 31.64395 -93.68399 36082 ft 374 kts 278°
2026-05-07 20:34 31.65842 -93.74257 36089 ft 374 kts 279°
2026-05-07 20:35 31.67303 -93.80111 36089 ft 373 kts 279°
2026-05-07 20:35 31.68754 -93.85919 36093 ft 373 kts 279°
2026-05-07 20:36 31.70214 -93.91764 36092 ft 373 kts 279°
2026-05-07 20:36 31.71672 -93.97614 36096 ft 373 kts 279°
2026-05-07 20:37 31.73125 -94.03456 36091 ft 373 kts 279°
2026-05-07 20:37 31.74575 -94.09302 36091 ft 373 kts 279°
2026-05-07 20:38 31.76024 -94.15153 36090 ft 373 kts 279°
2026-05-07 20:38 31.77471 -94.21009 36094 ft 373 kts 279°
2026-05-07 20:39 31.78915 -94.26865 36089 ft 373 kts 279°
2026-05-07 20:39 31.80357 -94.32726 36092 ft 373 kts 279°
2026-05-07 20:40 31.81795 -94.38587 36090 ft 374 kts 279°
2026-05-07 20:40 31.83234 -94.44459 36093 ft 374 kts 278°
2026-05-07 20:41 31.84662 -94.50302 36094 ft 374 kts 278°
2026-05-07 20:41 31.86096 -94.56184 36092 ft 374 kts 278°
2026-05-07 20:42 31.87530 -94.62075 36095 ft 375 kts 278°
2026-05-07 20:42 31.88963 -94.67981 36095 ft 376 kts 278°
2026-05-07 20:43 31.90396 -94.73896 36094 ft 376 kts 278°
2026-05-07 20:43 31.91830 -94.79825 36088 ft 377 kts 278°
2026-05-07 20:44 31.93261 -94.85763 36085 ft 377 kts 278°
2026-05-07 20:44 31.93977 -94.88738 35926 ft 379 kts 278°
2026-05-07 20:44 31.94695 -94.91723 35670 ft 378 kts 278°
2026-05-07 20:44 31.95409 -94.94686 35416 ft 375 kts 278°
2026-05-07 20:45 31.96117 -94.97634 35170 ft 375 kts 278°
2026-05-07 20:45 31.96826 -95.00599 34927 ft 377 kts 278°
2026-05-07 20:45 31.97539 -95.03580 34678 ft 379 kts 278°
2026-05-07 20:45 31.98253 -95.06563 34432 ft 379 kts 279°
2026-05-07 20:46 31.98968 -95.09559 34188 ft 380 kts 278°
2026-05-07 20:46 31.99662 -95.12524 33950 ft 380 kts 278°
2026-05-07 20:46 32.00351 -95.15531 33692 ft 381 kts 278°
2026-05-07 20:46 32.01036 -95.18542 33450 ft 380 kts 278°
2026-05-07 20:47 32.01719 -95.21544 33197 ft 378 kts 278°
2026-05-07 20:47 32.02399 -95.24536 32499 ft 378 kts 278°
2026-05-07 20:47 32.03079 -95.27522 31791 ft 378 kts 278°
2026-05-07 20:47 32.03757 -95.30500 31261 ft 374 kts 279°
2026-05-07 20:48 32.04427 -95.33441 30703 ft 369 kts 279°
2026-05-07 20:48 32.05087 -95.36344 30193 ft 367 kts 279°
2026-05-07 20:48 32.05749 -95.39275 29689 ft 376 kts 279°
2026-05-07 20:48 32.06427 -95.42282 29133 ft 380 kts 280°
2026-05-07 20:49 32.07104 -95.45268 28572 ft 375 kts 280°
2026-05-07 20:49 32.07777 -95.48229 28032 ft 371 kts 280°
2026-05-07 20:49 32.08439 -95.51152 27495 ft 366 kts 280°
2026-05-07 20:49 32.09089 -95.54034 26968 ft 362 kts 280°
2026-05-07 20:50 32.09737 -95.56894 26334 ft 361 kts 281°
2026-05-07 20:50 32.10451 -95.59752 25623 ft 363 kts 282°
2026-05-07 20:50 32.11198 -95.62596 25039 ft 361 kts 283°
2026-05-07 20:50 32.11937 -95.65400 24515 ft 357 kts 283°
2026-05-07 20:51 32.12653 -95.68148 24020 ft 353 kts 283°
2026-05-07 20:51 32.13371 -95.70932 23513 ft 348 kts 283°
2026-05-07 20:51 32.14058 -95.73613 23043 ft 344 kts 282°
2026-05-07 20:51 32.14743 -95.76307 22540 ft 342 kts 282°
2026-05-07 20:52 32.15388 -95.79002 22007 ft 341 kts 281°
2026-05-07 20:52 32.16012 -95.81696 21505 ft 339 kts 281°
2026-05-07 20:52 32.16630 -95.84385 21027 ft 340 kts 281°
2026-05-07 20:52 32.17250 -95.87086 20541 ft 342 kts 281°
2026-05-07 20:53 32.17871 -95.89783 20053 ft 339 kts 281°
2026-05-07 20:53 32.18489 -95.92457 19572 ft 336 kts 281°
2026-05-07 20:53 32.19103 -95.95107 19100 ft 333 kts 281°
2026-05-07 20:53 32.19711 -95.97739 18634 ft 332 kts 281°
2026-05-07 20:54 32.20317 -96.00365 18169 ft 331 kts 281°
2026-05-07 20:54 32.20923 -96.02995 17692 ft 333 kts 281°
2026-05-07 20:54 32.21532 -96.05639 17189 ft 334 kts 281°
2026-05-07 20:54 32.22139 -96.08273 16707 ft 331 kts 281°
2026-05-07 20:55 32.22741 -96.10885 16224 ft 328 kts 281°
2026-05-07 20:55 32.23338 -96.13476 15764 ft 325 kts 281°
2026-05-07 20:55 32.23927 -96.16040 15308 ft 322 kts 281°
2026-05-07 20:55 32.24511 -96.18583 14853 ft 319 kts 281°
2026-05-07 20:56 32.25080 -96.21067 14409 ft 316 kts 281°
2026-05-07 20:56 32.25654 -96.23573 13955 ft 315 kts 281°
2026-05-07 20:56 32.26227 -96.26078 13512 ft 316 kts 281°
2026-05-07 20:56 32.26793 -96.28553 13394 ft 308 kts 281°
2026-05-07 20:57 32.27348 -96.30954 13238 ft 298 kts 283°
2026-05-07 20:57 32.28217 -96.33160 12927 ft 301 kts 299°
2026-05-07 20:57 32.29590 -96.35059 12566 ft 303 kts 307°
2026-05-07 20:57 32.31019 -96.36836 12440 ft 293 kts 307°
2026-05-07 20:58 32.32435 -96.38538 12189 ft 291 kts 310°
2026-05-07 20:58 32.33980 -96.40088 11854 ft 291 kts 313°
2026-05-07 20:58 32.35541 -96.41602 11529 ft 289 kts 313°
2026-05-07 20:58 32.37066 -96.43098 11416 ft 282 kts 314°
2026-05-07 20:59 32.38515 -96.44627 11190 ft 275 kts 304°
2026-05-07 20:59 32.39526 -96.46498 10823 ft 269 kts 295°
2026-05-07 20:59 32.40424 -96.48453 10414 ft 272 kts 295°
2026-05-07 20:59 32.41327 -96.50425 10048 ft 272 kts 296°
2026-05-07 21:00 32.42234 -96.52391 9714 ft 272 kts 297°
2026-05-07 21:00 32.43140 -96.54342 9536 ft 266 kts 297°
2026-05-07 21:00 32.44025 -96.56239 9338 ft 261 kts 297°
2026-05-07 21:00 32.44903 -96.58117 9018 ft 261 kts 298°
2026-05-07 21:01 32.45788 -96.60006 8650 ft 263 kts 298°
2026-05-07 21:01 32.46671 -96.61901 8336 ft 263 kts 298°
2026-05-07 21:01 32.47542 -96.63768 8061 ft 261 kts 301°
2026-05-07 21:01 32.48813 -96.65266 7939 ft 254 kts 333°
2026-05-07 21:02 32.50463 -96.65792 7718 ft 248 kts 348°
2026-05-07 21:02 32.52160 -96.66129 7391 ft 246 kts 348°
2026-05-07 21:02 32.53817 -96.66458 7107 ft 238 kts 349°
2026-05-07 21:02 32.55427 -96.66779 6771 ft 231 kts 348°
2026-05-07 21:03 32.56990 -96.67100 6437 ft 226 kts 348°
2026-05-07 21:03 32.58534 -96.67427 6116 ft 226 kts 349°
2026-05-07 21:03 32.60076 -96.67765 5778 ft 225 kts 348°
2026-05-07 21:03 32.61598 -96.68116 5460 ft 221 kts 347°
2026-05-07 21:04 32.62933 -96.68884 5325 ft 209 kts 319°
2026-05-07 21:04 32.63959 -96.70048 5159 ft 201 kts 318°
2026-05-07 21:04 32.64978 -96.71178 5040 ft 200 kts 318°
2026-05-07 21:04 32.65987 -96.72327 5029 ft 201 kts 317°
2026-05-07 21:05 32.66984 -96.73485 5020 ft 201 kts 316°
2026-05-07 21:05 32.67968 -96.74644 5000 ft 198 kts 316°
2026-05-07 21:05 32.68951 -96.75803 5011 ft 201 kts 316°
2026-05-07 21:05 32.69943 -96.76974 5049 ft 203 kts 316°
2026-05-07 21:06 32.70953 -96.78170 5009 ft 206 kts 316°
2026-05-07 21:06 32.71957 -96.79358 5005 ft 202 kts 316°
2026-05-07 21:06 32.72946 -96.80529 4986 ft 200 kts 316°
2026-05-07 21:06 32.73938 -96.81702 4749 ft 200 kts 316°
2026-05-07 21:07 32.74914 -96.82856 4495 ft 196 kts 316°
2026-05-07 21:07 32.75829 -96.83936 4239 ft 193 kts 316°
2026-05-07 21:07 32.76801 -96.85087 3990 ft 189 kts 317°
2026-05-07 21:07 32.77736 -96.86190 3758 ft 189 kts 317°
2026-05-07 21:08 32.78666 -96.87291 3499 ft 190 kts 317°
2026-05-07 21:08 32.79604 -96.88399 3232 ft 190 kts 316°
2026-05-07 21:08 32.80534 -96.89500 2992 ft 186 kts 316°
2026-05-07 21:08 32.81454 -96.90586 2746 ft 184 kts 316°
2026-05-07 21:09 32.82326 -96.91619 2517 ft 176 kts 316°
2026-05-07 21:09 32.83192 -96.92638 2279 ft 175 kts 316°
2026-05-07 21:09 32.84056 -96.93659 2036 ft 174 kts 316°
2026-05-07 21:09 32.84884 -96.94638 1844 ft 160 kts 316°
2026-05-07 21:10 32.85653 -96.95546 1603 ft 153 kts 316°
2026-05-07 21:10 32.86403 -96.96430 1402 ft 152 kts 316°
2026-05-07 21:10 32.87150 -96.97312 1204 ft 151 kts 316°
2026-05-07 21:10 32.87888 -96.98191 1012 ft 150 kts 315°
2026-05-07 21:11 32.88630 -96.99061 822 ft 150 kts 315°
2026-05-07 21:11 32.89343 -96.99904 618 ft 149 kts 315°
2026-05-07 21:11 32.90539 -97.01307 547 ft 36 kts 316°
2026-05-07 21:12 32.90726 -97.01535 553 ft 38 kts 305°
2026-05-07 21:12 32.90812 -97.01804 562 ft 32 kts 283°
2026-05-07 21:12 32.90866 -97.02037 558 ft 27 kts 286°
2026-05-07 21:12 32.90900 -97.02251 566 ft 26 kts 269°
2026-05-07 21:13 32.90900 -97.02456 566 ft 24 kts 270°
2026-05-07 21:13 32.90901 -97.02647 569 ft 23 kts 270°
2026-05-07 21:13 32.90902 -97.02832 573 ft 22 kts 269°
2026-05-07 21:13 32.90901 -97.03012 574 ft 21 kts 270°
2026-05-07 21:14 32.90902 -97.03187 578 ft 21 kts 270°
2026-05-07 21:14 32.90903 -97.03357 585 ft 20 kts 270°
2026-05-07 21:14 32.90904 -97.03521 586 ft 20 kts 270°
2026-05-07 21:14 32.90903 -97.03702 594 ft 22 kts 270°
2026-05-07 21:15 32.90903 -97.03886 608 ft 22 kts 271°
2026-05-07 21:15 32.90906 -97.04078 617 ft 25 kts 271°
2026-05-07 21:15 32.90909 -97.04273 615 ft 25 kts 270°
2026-05-07 21:15 32.90908 -97.04509 596 ft 23 kts 271°
2026-05-07 21:16 32.90910 -97.04700 599 ft 17 kts 269°
2026-05-07 21:16 32.90823 -97.04759 597 ft 21 kts 179°
2026-05-07 21:16 32.90660 -97.04760 596 ft 26 kts 181°
2026-05-07 21:16 32.90468 -97.04764 597 ft 30 kts 181°
2026-05-07 21:17 32.90323 -97.04764 596 ft 16 kts 178°
2026-05-07 21:17 32.90166 -97.04762 596 ft 29 kts 181°
2026-05-07 21:17 32.89951 -97.04767 598 ft 33 kts 180°
2026-05-07 21:17 32.89781 -97.04765 596 ft 26 kts 180°
2026-05-07 21:18 32.89642 -97.04763 597 ft 15 kts 177°
2026-05-07 21:18 32.89573 -97.04709 596 ft 17 kts 87°
2026-05-07 21:18 32.89584 -97.04591 597 ft 8 kts 90°
2026-05-07 21:18 32.89584 -97.04575 597 ft 0 kts 90°